Location: Makakahi
(40.6833°S, 175.6000°E)
Time: 18:39:26
(UTC+00:00)

FENGYUN 1C DEB - Visible Passes

Search period start: 05 December 2024 00:00
Search period end: 15 December 2024 00:00
Orbit: 814 x 877 km, 98.8° (Epoch: 05 December)

Date Brightness Start Highest point End Pass type
(mag) Time Alt. Az. Time Alt. Az. Time Alt. Az.
05 Dec ? 09:02:18 10° SSE 09:07:44 81° ENE 09:13:10 10° NNW visible
05 Dec ? 10:44:50 10° SSW 10:47:37 14° WSW 10:50:23 10° W visible
06 Dec ? 08:48:58 10° SSE 08:54:21 61° ENE 08:59:43 10° N visible
06 Dec ? 10:30:47 10° SSW 10:34:25 19° WSW 10:38:04 10° WNW visible
07 Dec ? 08:35:43 10° SSE 08:40:56 46° E 08:46:08 10° N visible
07 Dec ? 10:16:58 10° SSW 10:21:12 24° WSW 10:25:26 10° WNW visible
08 Dec ? 08:22:31 10° SSE 08:27:28 35° E 08:32:25 10° NNE visible
08 Dec ? 10:03:15 10° S 10:07:56 31° WSW 10:12:38 10° NW visible
09 Dec ? 08:09:26 10° SE 08:13:59 27° E 08:18:32 10° NNE visible
09 Dec ? 09:49:37 10° S 09:54:39 40° WSW 09:59:41 10° NW visible
10 Dec ? 09:36:04 10° S 09:41:19 52° WSW 09:46:35 10° NW visible
11 Dec ? 09:22:33 10° S 09:27:58 68° WSW 09:33:23 10° NNW visible
12 Dec ? 09:09:05 10° SSE 09:14:34 89° WSW 09:20:04 10° NNW visible
12 Dec ? 10:52:05 10° SSW 10:54:20 13° WSW 10:56:36 10° W visible
13 Dec ? 08:55:41 10° SSE 09:01:09 71° ENE 09:06:37 10° N visible
13 Dec ? 10:37:49 10° SSW 10:41:07 17° WSW 10:44:26 10° W visible
14 Dec ? 08:42:21 10° SSE 08:47:42 53° E 08:53:03 10° N visible
14 Dec ? 10:23:51 10° SSW 10:27:52 21° WSW 10:31:53 10° WNW visible
